This is the latest recevied weather packets stored in our database for station/object W8CEN. If no packets are shown the sender has not sent any weather packets the latest 10 day(s).
| Time | Temp. | Humidity | Pressure | Rain* | Wind** | Luminosity | Snow |
|---|---|---|---|---|---|---|---|
| 1777737086 | 7.78° C | 58% | 997.2 hPa | 0 mm | - | 274 W/m² | - |
| 1777736782 | 7.78° C | 55% | 997.2 hPa | 0 mm | - | 271 W/m² | - |
| 1777736154 | 8.33° C | 56% | 996.9 hPa | 0 mm | - | 362 W/m² | - |
| 1777735851 | 7.78° C | 59% | 997.2 hPa | 0 mm | - | 557 W/m² | - |
| 1777735548 | 8.33° C | 60% | 997.1 hPa | 0 mm | - | 227 W/m² | - |
| 1777735245 | 8.33° C | 60% | 997.1 hPa | 0 mm | - | 251 W/m² | - |
| 1777734943 | 8.89° C | 55% | 997.1 hPa | 0 mm | - | 325 W/m² | - |
| 1777734640 | 8.33° C | 63% | 996.9 hPa | 0 mm | - | 869 W/m² | - |
| 1777734338 | 7.78° C | 60% | 997 hPa | 0 mm | - | 853 W/m² | - |
| 1777734033 | 7.78° C | 70% | 997 hPa | 0 mm | - | 337 W/m² | - |
| 1777733730 | 6.67° C | 65% | 996.9 hPa | 0 mm | - | 477 W/m² | - |
| 1777733427 | 6.67° C | 68% | 997 hPa | 0 mm | - | 490 W/m² | - |
| 1777733123 | 6.67° C | 70% | 996.9 hPa | 0 mm | - | 255 W/m² | - |
| 1777732820 | 6.67° C | 72% | 996.6 hPa | 0 mm | - | 228 W/m² | - |
| 1777732516 | 6.11° C | 78% | 996.6 hPa | 0 mm | - | 201 W/m² | - |
| 1777732215 | 5.56° C | 79% | 996.6 hPa | 0 mm | - | 178 W/m² | - |
| 1777731911 | 5.56° C | 77% | 996.7 hPa | 0 mm | - | 154 W/m² | - |
| 1777731608 | 5.56° C | 79% | 996.5 hPa | 0 mm | - | 118 W/m² | - |
| 1777731305 | 5.56° C | 84% | 996.5 hPa | 0 mm | - | 98 W/m² | - |
| 1777731002 | 5.56° C | 85% | 996.5 hPa | 0 mm | - | 87 W/m² | - |
| 1777730701 | 5.56° C | 85% | 996.6 hPa | 0 mm | - | 57 W/m² | - |
| 1777730397 | 5.56° C | 84% | 996.6 hPa | 0 mm | - | 49 W/m² | - |
| 1777730093 | 5.56° C | 84% | 996.4 hPa | 0 mm | - | 55 W/m² | - |
| 1777729790 | 5.56° C | 83% | 996.3 hPa | 0 mm | - | 64 W/m² | - |
| 1777729486 | 5.56° C | 81% | 996.4 hPa | 0 mm | - | 72 W/m² | - |
* Rain latest hour (hover to see other rain measurements)
** Current wind speed in m/s (hover to see current wind gust speed)